Regional Weather Roundup
Issued by NWS Kansas City/Pleasant Hill, MO

Home | Current Version | Previous Version | Text Only | Print | Product List | Glossary On
Versions: 1 2 3 4 5 6 7 8 9 10 11 12 13 14 15 16 17 18 19 20 21 22 23 24 25 26 27 28 29 30 31 32 33 34 35 36 37 38 39 40 41 42 43 44 45 46 47 48 49 50
000
ASUS43 KEAX 222110
RWREAX

WEATHER ROUNDUP FOR EASTERN KANSAS AND NORTHWEST MISSOURI
NATIONAL WEATHER SERVICE KANSAS CITY/PLEASANT HILL MO
400 PM CDT TUE APR 22 2014

KSZ040-057-103>105-MOZ028-029-037-043-222200-
...KANSAS CITY METROPOLITAN AREA...

CITY           SKY/WX    TMP DP  RH WIND       PRES   REMARKS
K.C. INTL      SUNNY     67  30  25 VRB3      30.06F
K.C. DOWNTOWN  SUNNY     70  33  25 NE7       30.04F
LEES SUMMIT    SUNNY     69  34  27 CALM      30.05F
OLATHE - IXD   SUNNY     68  28  22 NW7       30.05F
OLATHE - OJC   SUNNY     68  29  23 VRB3      30.04F
LAWRENCE       SUNNY     71  31  22 VRB6      30.05F

$$

MOZ001>008-011>017-020>025-030>033-038>040-044>046-053-054-222200-
...NORTHERN AND CENTRAL MISSOURI...

CITY           SKY/WX    TMP DP  RH WIND       PRES   REMARKS
ST. JOSEPH     SUNNY     68  31  25 VRB3      30.06F
MOSBY          FAIR      64  32  29 NE6       30.05F
WHITEMAN AFB   SUNNY     66  26  22 NE9       30.04F
CLINTON        SUNNY     66  39  37 N10       30.05F
SEDALIA        SUNNY     67  34  29 NW7       30.05F
WARSAW         NOT AVBL
MARSHALL         N/A     70  34  26 NW8       30.05F
CHILLICOTHE      N/A     66  35  31 VRB5      30.06F
MOBERLY        SUNNY     66  34  30 N8        30.06F
KIRKSVILLE     SUNNY     66  31  27 N13G20    30.06F

$$

MOZ041-047>049-056>058-063>065-088>090-097-222200-
...EASTERN AND SOUTHERN MISSOURI...

CITY           SKY/WX    TMP DP  RH WIND       PRES   REMARKS
ST. LOUIS INTL MOSUNNY   69  39  33 W14       30.00F
SPIRIT OF STL  MOSUNNY   67  38  34 NW13G18   30.01S
COLUMBIA       SUNNY     66  37  34 N7G16     30.04F
JEFFERSON CITY SUNNY     68  29  23 NW12G18   30.02F
MEXICO         SUNNY     64  36  34 NW9       30.04F
HANNIBAL       SUNNY     68  25  19 NW8G20    30.03F
ROLLA          SUNNY     68  35  29 N13       30.01F
LEBANON        SUNNY     70  28  21 N8        30.02F
OSAGE BEACH    SUNNY     68  32  26 N8        30.04F
SPRINGFIELD    SUNNY     69  35  28 VRB6      30.02F
BRANSON        SUNNY     70  36  28 N9        30.02F
NEVADA         SUNNY     68  36  30 NE9       30.05F
JOPLIN         SUNNY     69  36  29 VRB6      30.04F
WEST PLAINS    SUNNY     73  35  25 NW12G22   29.99F
MALDEN         SUNNY     75  41  29 N7        29.94F

$$

IAZ060-094-KSZ022-034>040-054-083-096-NEZ052-066-093-222200-
...KANSAS...SOUTHEAST NEBRASKA AND IOWA...

CITY           SKY/WX    TMP DP  RH WIND       PRES   REMARKS
TOPEKA         SUNNY     72  33  24 CALM      30.05F
MANHATTAN      SUNNY     73  32  22 E10       30.03F
EMPORIA        SUNNY     71  31  22 E7        30.05F
CHANUTE        SUNNY     72  35  25 VRB6      30.05F
WICHITA        MOSUNNY   75  30  19 SE5       30.03F
OMAHA          MOSUNNY   67  32  27 VRB3      30.04F
LINCOLN        MOSUNNY   71  33  24 SE9G20    30.03F
FALLS CITY     SUNNY     70  31  23 SE7       30.04F
LAMONI         SUNNY     65  33  30 VRB5      30.05F
DES MOINES     MOSUNNY   67  31  26 NE14      30.06F

$$




USA.gov is the U.S. government's official web portal to all federal, state and local government web resources and services.